Regional Weather Roundup
Issued by NWS Upton, NY

Current Version | Previous Version | Graphics & Text | Print | Product List | Glossary Off
Versions: 1 2 3 4 5 6 7 8 9 10 11 12 13 14 15 16 17 18 19 20 21 22 23 24 25 26 27 28 29 30 31 32 33 34 35 36 37 38 39 40 41 42 43 44 45 46 47 48 49

000
ASUS41 KOKX 252305
RWROKX

REGIONAL WEATHER ROUNDUP
NATIONAL WEATHER SERVICE NEW YORK NY
600 PM EST WED FEB 25 2015

NOTE: "FAIR" INDICATES FEW OR NO CLOUDS BELOW 12,000 FEET WITH NO
SIGNIFICANT WEATHER AND/OR OBSTRUCTIONS TO VISIBILITY.

NYZ071-072-176-178-NJZ106-104-260000-
NEW YORK CITY METRO AREA


CITY           SKY/WX    TMP DP  RH WIND       PRES   REMARKS
CENTRAL PARK   CLEAR     36  10  34 W9        29.90R WCI  29
LAGUARDIA APRT MOCLDY    36  12  37 W10G17    29.89R WCI  28
KENNEDY INTL   MOCLDY    35  12  38 W13       29.90R WCI  26
NEWARK/LIBERTY MOCLDY    35  14  42 W9        29.90R WCI  28
BRNX BOT. GARD   N/A    N/A N/A N/A W7        29.91R
TETERBORO      CLEAR     34  11  38 W6        29.88R WCI  29
$$

NYZ177-179-078>081-260000-
LONG ISLAND NEW YORK

CITY           SKY/WX    TMP DP  RH WIND       PRES   REMARKS
FARMINGDALE    PTCLDY    35  13  40 W7        29.88R WCI  29
ISLIP          MOCLDY    33  13  43 NW9       29.86R WCI  25
SHIRLEY        PTCLDY    32  13  45 W3        29.88R
WESTHAMPTON    PTCLDY    31  11  43 W5        29.88R WCI  26
MONTAUK POINT    N/A     32  16  51 SW6       29.87R WCI  26
$$

NYZ052-065-067-260000-
HUDSON VALLEY

CITY           SKY/WX    TMP DP  RH WIND       PRES   REMARKS
WHITE PLAINS   CLEAR     31   9  39 CALM      29.85R
NEWBURGH       CLEAR     32   9  37 NW12      29.86R WCI  23
MONTGOMERY     CLEAR     32   4  30 NW10      29.86R WCI  24
POUGHKEEPSIE   CLEAR     33   3  28 W9        29.87R WCI  25
ALBANY         PTCLDY    21   4  47 NW10      29.94R WCI  10
$$

NJZ001-105-106-008-010-013-015-019>022-104-260000-
NEW JERSEY

CITY           SKY/WX    TMP DP  RH WIND       PRES   REMARKS
NEWARK/LIBERTY MOCLDY    35  14  42 W9        29.90R WCI  28
TETERBORO      CLEAR     34  11  38 W6        29.88R WCI  29
CALDWELL       CLEAR     33  11  39 W5        29.89R WCI  29
MORRISTOWN     MOCLDY    34  10  37 W7        29.89R WCI  28
SOMERVILLE     PTCLDY    34  12  40 CALM      29.89R
SUSSEX         CLEAR     32  10  40 W3        29.87R
ANDOVER          N/A     29  11  47 CALM      29.87R
TRENTON        PTCLDY    34  13  41 CALM      29.90R
MILLVILLE      CLEAR     33  15  47 SW3       29.94R
ATLANTIC CITY  CLEAR     33  14  45 SW5       29.94R WCI  29
WRIGHTSTOWN    PTCLDY    33  15  47 W3        29.90R
TOMS RIVER     PTCLDY    34  16  47 W7        29.93R WCI  28
BELMAR         MOCLDY    34  12  40 W3        29.90R
$$

PAZ047>061-062-071-260000-
EASTERN PENNSYLVANIA

CITY           SKY/WX    TMP DP  RH WIND       PRES   REMARKS
PHILADELPHIA   MOCLDY    35  18  49 SW7       29.94R WCI  29
ALLENTOWN      CLEAR     29  14  53 SW6       29.88R WCI  23
SCRANTON       CLEAR     29   7  39 N7        29.85R WCI  22
$$

CTZ002-004>006-009-010-012-RIZ004-006-007-MAZ004-011-015-260000-
SOUTHERN NEW ENGLAND
 IN CT

CITY           SKY/WX    TMP DP  RH WIND       PRES   REMARKS
BRADLEY INTL   PTCLDY    33   8  35 NW9       29.84R WCI  25
HARTFORD       PTCLDY    34   7  32 W13G23    29.85R WCI  25
DANBURY        CLEAR     31   5  33 VRB7      29.85R WCI  24
WTRBRY/OXFORD  PTCLDY    30   7  37 NW6       29.84R WCI  24
BRIDGEPORT     PTCLDY    32  12  43 W5        29.87R WCI  27
MERIDEN        PTCLDY    31   9  39 VRB3      29.85R
NEW HAVEN      PTCLDY    32  13  45 VRB6      29.86R WCI  26
CHESTER        FAIR      32  10  40 CALM      29.84R
GROTON         PTCLDY    29  22  75 SW7       29.86R WCI  22
WILLIMANTIC    PTCLDY    30   9  41 W3        29.84R

 IN RI

CITY           SKY/WX    TMP DP  RH WIND       PRES   REMARKS
PROVIDENCE     PTCLDY    31   9  39 W9        29.85R WCI  23
BLOCK ISLAND   CLEAR     30  18  59 W9        29.86R WCI  22
WESTERLY       CLEAR     31  21  66 W8        29.86R WCI  23

 IN MA

CITY           SKY/WX    TMP DP  RH WIND       PRES   REMARKS
BOSTON         PTCLDY    33   8  35 NW13G21   29.82R WCI  24
WORCESTER      CLEAR     27   7  42 W16G25    29.77R WCI  15
WESTFIELD      CLEAR     30   8  39 NW10      29.85R WCI  21
PROVINCETOWN   CLEAR     32  14  47 W15       29.82R WCI  22
NANTUCKET      CLEAR     30  20  66 W13       29.85R WCI  20
$$

ANZ330-335-338-340-345-350-353-355-260000-
COASTAL MARINE OBSERVATIONS


STATION/POSITION TIME  SKY/WX   TEMP    WIND        PRES    VSBY  WAVE
                                AIR SEA DIR/SP/G                  HT/PER
                 (UTC)          (F)     (DEG/KT/KT) (MB)    (MI)  (FT/S)
NY HARB ENTRANCE 2300            36 39  270/ 14/ 17 1012.3          2/ 3
4S FIRE IS       NOT AVBL
20S FIRE ISLAND  2200               35              1012.6          4/ 5
23SW MTP         2300                                 N/A           5/ 5
HUDSON CANYON    NOT AVBL
EXECUTION ROCKS  NOT AVBL
WESTERN LI SOUND NOT AVBL
CENTRAL LI SOUND NOT AVBL
EASTERN LI SOUND NOT AVBL
ROBBINS REEF     2300            35     300/ 12/ 14 1010.8
$$


>>>>>>>>>>>>>>>>>>>>>>>>>>>> KEY <<<<<<<<<<<<<<<<<<<<<<<<<<<
>                                                          <
>     SKY/WX - SKY CONDITION/PRESENT WEATHER               <
>     TMP    - TEMPERATURE IN FAHRENHEIT                   <
>     DP     - DEWPOINT IN FAHRENHEIT                      <
>     RH     - RELATIVE HUMIDITY IN PERCENT                <
>     WIND   - DIRECTION AND SPEED IN MPH                  <
>     PRES   - MEAN SEA LEVEL PRESSURE IN INCHES OF HG     <
>     WCI    - WIND CHILL INDEX                            <
>     VSB    - VISIBILITY IN MILES                         <
>     HX     - HEAT INDEX                                  <
>     TC     - TEMPERATURE IN CELSIUS                      <
>     VRB    - VARIABLE WIND DIRECTION                     <
>                                                          <
>>>>>>>>>>>>>>>>>>>>>>>>>>>> KEY <<<<<<<<<<<<<<<<<<<<<<<<<<<




USA.gov is the U.S. government's official web portal to all federal, state and local government web resources and services.